Beckley, WV

8:26 AM EST on December 08, 2019 (GMT -0500)
Raleigh County Memorial

Weather History for KBKW - June, 2019

Change the Weather History Date:

Thursday, June 6, 2019

  Actual Average Record
Temperature  
Mean Temperature 71 °F 65 °F  
Max Temperature 79 °F 75 °F 91 °F (1925)
Min Temperature 63 °F 55 °F 38 °F (1926)
Degree Days  
Heating Degree Days 0 2  
Month to date heating degree days 9 16  
Since 1 June heating degree days 9 16  
Since 1 July heating degree days 4760 5317  
Cooling Degree Days 6 2  
Month to date cooling degree days 12 12  
Year to date cooling degree days 132 53  
Since 1 June cooling degree days 12 12  
Growing Degree Days 21 (Base 50)    
Moisture  
Dew Point 63 °F    
Average Humidity 76    
Maximum Humidity 93    
Minimum Humidity 58    
Precipitation  
Precipitation 0.02 in 0.14 in 2.31 in (1953)
Month to date precipitation 0.52 0.83  
Year to date precipitation 20.86 17.99  
Sea Level Pressure  
Sea Level Pressure 29.88 in    
Wind  
Wind Speed 6 mph (WSW)    
Max Wind Speed 12 mph    
Max Gust Speed 18 mph    
Visibility 9 miles    
Events Rain    
T = Trace of Precipitation, MM = Missing Value Source: NWS Daily Summary

Daily Weather History Graph

Daily Weather History Graph

Search for Another Location

Airport or City:

Astronomy

Jun. 06, 2019 Rise Set
Actual Time 6:02 AM EDT 8:43 PM EDT
Civil Twilight 5:31 AM EDT 9:14 PM EDT
Nautical Twilight 4:53 AM EDT 9:53 PM EDT
Astronomical Twilight 4:09 AM EDT 10:37 PM EDT
Moon 9:09 AM EDT (6/6) No Moon Set
Length of Visible Light 15h 42m
Length of Day
14h 41m
Waxing Crescent, 13% of the Moon is Illuminated
Jun 6
Waxing Crescent
Jun 10
First Quarter
Jun 17
Full
Jun 25
Last Quarter
Jul 2
New

Hourly Weather History & Observations

Time (EDT) Temp. Dew Point Humidity Pressure Visibility Wind Dir Wind Speed Gust Speed Precip Events Conditions
12:51 AM 68.0 °F 64.0 °F 87% 29.84 in 6.0 mi SW 10.4 mph - 0.00 in Rain Light Rain
1:51 AM 66.9 °F 64.0 °F 90% 29.83 in 7.0 mi SW 4.6 mph - 0.02 in   Mostly Cloudy
2:03 AM 66.9 °F 64.0 °F 90% 29.91 in 7.0 mi WSW 9.2 mph - N/A   Overcast
2:22 AM 66.0 °F 63.0 °F 90% 29.90 in 7.0 mi SW 8.1 mph - N/A   Scattered Clouds
2:36 AM 66.0 °F 63.0 °F 90% 29.91 in 7.0 mi WSW 6.9 mph - 0.00 in Rain Light Rain
2:51 AM 66.0 °F 62.1 °F 87% 29.82 in 8.0 mi SW 10.4 mph - 0.00 in   Scattered Clouds
3:51 AM 64.9 °F 62.1 °F 90% 29.84 in 9.0 mi WNW 5.8 mph - N/A   Scattered Clouds
4:49 AM 64.4 °F 60.8 °F 88% 29.92 in 5.0 mi WSW 3.5 mph - 0.00 in Rain Light Rain
4:51 AM 64.0 °F 61.0 °F 90% 29.84 in 5.0 mi Calm Calm - 0.00 in Rain Light Rain
5:51 AM 63.0 °F 61.0 °F 93% 29.84 in 5.0 mi South 4.6 mph - 0.01 in   Overcast
5:58 AM 63.0 °F 62.1 °F 97% 29.92 in 6.0 mi South 4.6 mph - N/A   Overcast
6:51 AM 64.0 °F 61.0 °F 90% 29.85 in 9.0 mi SSW 6.9 mph - N/A   Overcast
7:51 AM 66.0 °F 62.1 °F 87% 29.86 in 10.0 mi SW 6.9 mph - N/A   Overcast
8:51 AM 66.9 °F 62.1 °F 84% 29.87 in 10.0 mi West 4.6 mph - N/A   Overcast
9:21 AM 68.0 °F 62.1 °F 81% 29.96 in 10.0 mi West 8.1 mph - N/A   Overcast
9:51 AM 68.0 °F 63.0 °F 84% 29.88 in 10.0 mi WNW 5.8 mph - N/A   Overcast
10:30 AM 70.0 °F 63.0 °F 78% 29.97 in 10.0 mi WSW 5.8 mph - N/A   Overcast
10:51 AM 71.1 °F 62.1 °F 73% 29.88 in 10.0 mi West 8.1 mph - N/A   Overcast
11:40 AM 73.9 °F 63.0 °F 68% 29.97 in 10.0 mi WNW 4.6 mph - N/A   Mostly Cloudy
11:47 AM 73.4 °F 62.6 °F 69% 29.97 in 10.0 mi West 6.9 mph - N/A   Mostly Cloudy
11:51 AM 73.9 °F 63.0 °F 68% 29.88 in 10.0 mi SW 5.8 mph - N/A   Mostly Cloudy
11:59 AM 73.9 °F 63.0 °F 68% 29.97 in 10.0 mi West 6.9 mph - N/A   Mostly Cloudy
12:18 PM 75.0 °F 63.0 °F 66% 29.97 in 10.0 mi SSW 5.8 mph - N/A   Mostly Cloudy
12:30 PM 73.9 °F 61.0 °F 64% 29.97 in 10.0 mi SW 6.9 mph - N/A   Overcast
12:51 PM 75.9 °F 62.1 °F 62% 29.86 in 10.0 mi SW 10.4 mph - N/A   Overcast
1:51 PM 78.1 °F 62.1 °F 58% 29.85 in 10.0 mi WNW 8.1 mph - N/A   Mostly Cloudy
2:51 PM 77.0 °F 62.1 °F 60% 29.84 in 10.0 mi Variable 3.5 mph - N/A   Mostly Cloudy
3:51 PM 78.1 °F 63.0 °F 60% 29.83 in 10.0 mi North 5.8 mph - N/A   Scattered Clouds
4:51 PM 78.1 °F 62.1 °F 58% 29.82 in 10.0 mi North 9.2 mph - N/A   Mostly Cloudy
5:51 PM 75.9 °F 63.0 °F 64% 29.83 in 10.0 mi NNE 6.9 mph - N/A   Scattered Clouds
6:51 PM 75.0 °F 63.0 °F 66% 29.83 in 10.0 mi NNE 6.9 mph - N/A   Unknown
7:51 PM 73.0 °F 64.0 °F 73% 29.83 in 10.0 mi NNE 3.5 mph - N/A   Clear
8:51 PM 71.1 °F 64.0 °F 78% 29.86 in 10.0 mi Calm Calm - N/A   Clear
9:51 PM 69.1 °F 63.0 °F 81% 29.87 in 10.0 mi WSW 6.9 mph - N/A   Mostly Cloudy
10:42 PM 68.0 °F 63.0 °F 84% 29.96 in 10.0 mi SSW 3.5 mph - N/A   Mostly Cloudy
10:51 PM 66.9 °F 63.0 °F 87% 29.87 in 10.0 mi South 5.8 mph - N/A   Overcast
11:51 PM 66.0 °F 63.0 °F 90% 29.86 in 10.0 mi SSW 3.5 mph - N/A   Mostly Cloudy